| time (UTC) | temp F | wind direction | speed MPH | gust MPH | rain 1hr in | rain 24hr in | rain mn in | humidity % | barometer mb |
| 20260903181606 | 62 | 309 | 0.0 | 3.0 | 0.00 | 0.31 | 0.00 | 79 | 1015.2 |
| 20260903180032 | 61 | 330 | 0.0 | 5.0 | 0.00 | 0.31 | 0.00 | 84 | 1015.2 |
| 20260903173031 | 56 | 289 | 0.0 | 1.0 | 0.00 | 0.31 | 0.00 | 96 | 1015.4 |
| 20260903171531 | 54 | 317 | 0.0 | 0.0 | 0.00 | 0.31 | 0.00 | 97 | 1015.4 |
| 20260903170030 | 53 | 256 | 0.0 | 2.0 | 0.00 | 0.31 | 0.00 | 98 | 1015.6 |
| 20260903164530 | 52 | 269 | 0.0 | 0.0 | 0.00 | 0.31 | 0.00 | 98 | 1015.6 |
| 20260903163103 | 51 | 314 | 0.0 | 0.0 | 0.00 | 0.31 | 0.00 | 98 | 1015.4 |
| 20260903160040 | 51 | 247 | 0.0 | 0.0 | 0.00 | 0.31 | 0.00 | 98 | 1015.5 |
| 20260903153031 | 51 | 247 | 0.0 | 0.0 | 0.00 | 0.31 | 0.00 | 98 | 1015.5 |
| 20260903151529 | 51 | 247 | 0.0 | 0.0 | 0.00 | 0.31 | 0.00 | 98 | 1015.6 |
| 20260903150030 | 50 | 247 | 0.0 | 1.0 | 0.00 | 0.31 | 0.00 | 98 | 1015.4 |
| 20260903144530 | 49 | 247 | 0.0 | 0.0 | 0.00 | 0.31 | 0.00 | 97 | 1015.3 |
| 20260903143031 | 49 | 247 | 0.0 | 1.0 | 0.00 | 0.31 | 0.00 | 97 | 1015.2 |
| 20260903141605 | 48 | 247 | 0.0 | 1.0 | 0.00 | 0.31 | 0.00 | 97 | 1015.1 |
| 20260903140032 | 47 | 247 | 0.0 | 2.0 | 0.00 | 0.31 | 0.00 | 97 | 1015.0 |
| 20260903133032 | 48 | 247 | 0.0 | 1.0 | 0.00 | 0.31 | 0.00 | 97 | 1014.8 |
| 20260903131530 | 48 | 247 | 0.0 | 1.0 | 0.00 | 0.31 | 0.00 | 97 | 1014.6 |
| 20260903124529 | 48 | 247 | 0.0 | 1.0 | 0.00 | 0.31 | 0.00 | 97 | 1014.6 |
| 20260903121529 | 48 | 244 | 0.0 | 1.0 | 0.00 | 0.31 | 0.00 | 96 | 1014.7 |
| 20260903120029 | 49 | 225 | 0.0 | 1.0 | 0.00 | 0.31 | 0.00 | 96 | 1014.6 |
| 20260903114531 | 49 | 225 | 0.0 | 1.0 | 0.00 | 0.31 | 0.00 | 96 | 1014.6 |
| 20260903113030 | 49 | 225 | 0.0 | 1.0 | 0.00 | 0.31 | 0.00 | 96 | 1014.6 |
| 20260903111531 | 50 | 225 | 0.0 | 1.0 | 0.00 | 0.31 | 0.00 | 96 | 1014.5 |
| 20260903110031 | 50 | 225 | 0.0 | 2.0 | 0.00 | 0.31 | 0.00 | 96 | 1014.4 |
| 20260903104531 | 50 | 225 | 0.0 | 1.0 | 0.00 | 0.31 | 0.00 | 96 | 1014.4 |
| 20260903103103 | 51 | 225 | 0.0 | 0.0 | 0.00 | 0.31 | 0.00 | 96 | 1014.3 |
| 20260903101530 | 51 | 225 | 0.0 | 0.0 | 0.00 | 0.31 | 0.00 | 96 | 1014.2 |
| 20260903100031 | 52 | 225 | 0.0 | 0.0 | 0.00 | 0.31 | 0.00 | 96 | 1014.2 |
| 20260903094602 | 52 | 225 | 0.0 | 0.0 | 0.00 | 0.31 | 0.00 | 96 | 1014.2 |
| 20260903093031 | 52 | 225 | 0.0 | 2.0 | 0.00 | 0.31 | 0.00 | 96 | 1014.2 |
| 20260903091530 | 51 | 239 | 0.0 | 2.0 | 0.00 | 0.31 | 0.00 | 96 | 1014.2 |
| 20260903084528 | 51 | 247 | 0.0 | 1.0 | 0.00 | 0.31 | 0.00 | 96 | 1014.3 |
| 20260903083032 | 51 | 251 | 0.0 | 2.0 | 0.00 | 0.31 | 0.00 | 96 | 1014.1 |
| 20260903081530 | 51 | 260 | 0.0 | 2.0 | 0.00 | 0.31 | 0.00 | 96 | 1014.0 |
| 20260903080029 | 51 | 255 | 0.0 | 2.0 | 0.00 | 0.31 | 0.00 | 96 | 1014.0 |
| 20260903073104 | 51 | 227 | 0.0 | 3.0 | 0.00 | 0.31 | 0.00 | 95 | 1013.6 |
| 20260903071529 | 51 | 247 | 0.0 | 2.0 | 0.00 | 0.31 | 0.00 | 95 | 1013.6 |
| 20260903070030 | 52 | 247 | 0.0 | 1.0 | 0.00 | 0.31 | 0.00 | 95 | 1013.7 |
| 20260903064608 | 52 | 247 | 0.0 | 0.0 | 0.00 | 0.31 | 0.31 | 95 | 1013.7 |
| 20260903063028 | 53 | 247 | 0.0 | 0.0 | 0.00 | 0.31 | 0.31 | 95 | 1013.8 |
| 20260903061531 | 52 | 247 | 0.0 | 2.0 | 0.00 | 0.31 | 0.31 | 95 | 1013.7 |
| 20260903054604 | 53 | 242 | 0.0 | 2.0 | 0.00 | 0.31 | 0.31 | 95 | 1013.7 |
| 20260903053030 | 53 | 247 | 0.0 | 1.0 | 0.00 | 0.31 | 0.31 | 95 | 1013.6 |
| 20260903051532 | 53 | 247 | 0.0 | 1.0 | 0.00 | 0.31 | 0.31 | 95 | 1013.5 |
| 20260903050106 | 53 | 247 | 0.0 | 2.0 | 0.00 | 0.31 | 0.31 | 94 | 1013.4 |
| 20260903044530 | 53 | 247 | 0.0 | 1.0 | 0.00 | 0.31 | 0.31 | 94 | 1013.3 |
| 20260903043031 | 53 | 247 | 0.0 | 1.0 | 0.00 | 0.31 | 0.31 | 94 | 1013.2 |
| 20260903041607 | 53 | 257 | 0.0 | 4.0 | 0.00 | 0.31 | 0.31 | 93 | 1012.9 |
| 20260903040030 | 54 | 270 | 0.0 | 0.0 | 0.00 | 0.31 | 0.31 | 93 | 1012.7 |
| 20260903033032 | 54 | 262 | 0.0 | 2.0 | 0.01 | 0.31 | 0.31 | 94 | 1012.5 |
| 20260903031531 | 54 | 248 | 0.0 | 5.0 | 0.01 | 0.31 | 0.31 | 94 | 1012.4 |
| 20260903030032 | 55 | 246 | 0.0 | 3.0 | 0.02 | 0.31 | 0.31 | 94 | 1012.2 |
| 20260903021531 | 56 | 263 | 0.0 | 3.0 | 0.12 | 0.30 | 0.28 | 93 | 1011.9 |
| 20260903020029 | 58 | 276 | 0.0 | 5.0 | 0.11 | 0.28 | 0.19 | 93 | 1011.9 |
| 20260903013104 | 58 | 292 | 0.0 | 0.0 | 0.01 | 0.18 | 0.18 | 92 | 1011.6 |
| 20260903011530 | 58 | 292 | 0.0 | 0.0 | 0.03 | 0.18 | 0.18 | 92 | 1011.5 |
| 20260903004536 | 58 | 292 | 0.0 | 0.0 | 0.05 | 0.17 | 0.17 | 91 | 1011.8 |
| 20260903003032 | 58 | 292 | 0.0 | 0.0 | 0.05 | 0.17 | 0.15 | 91 | 1011.8 |
| 20260903001529 | 58 | 292 | 0.0 | 0.0 | 0.04 | 0.15 | 0.14 | 90 | 1011.8 |
| 20260903000031 | 59 | 292 | 0.0 | 0.0 | 0.03 | 0.14 | 0.12 | 90 | 1011.7 |
| 20260902234533 | 59 | 292 | 0.0 | 0.0 | 0.02 | 0.12 | 0.12 | 89 | 1011.7 |
| 20260902233032 | 60 | 292 | 0.0 | 0.0 | 0.02 | 0.12 | 0.11 | 88 | 1011.8 |
| 20260902231529 | 60 | 292 | 0.0 | 0.0 | 0.02 | 0.11 | 0.11 | 90 | 1011.9 |
| 20260902230029 | 60 | 292 | 0.0 | 0.0 | 0.03 | 0.11 | 0.10 | 91 | 1012.0 |
| 20260902224533 | 59 | 292 | 0.0 | 0.0 | 0.02 | 0.10 | 0.10 | 91 | 1011.8 |
| 20260902223030 | 59 | 292 | 0.0 | 0.0 | 0.03 | 0.10 | 0.09 | 91 | 1011.9 |
| 20260902221532 | 59 | 292 | 0.0 | 0.0 | 0.03 | 0.09 | 0.08 | 90 | 1011.8 |
| 20260902220029 | 59 | 282 | 0.0 | 1.0 | 0.03 | 0.08 | 0.08 | 90 | 1011.7 |
| 20260902214534 | 59 | 261 | 0.0 | 2.0 | 0.04 | 0.08 | 0.07 | 89 | 1011.6 |
| 20260902211531 | 60 | 247 | 0.0 | 0.0 | 0.04 | 0.06 | 0.05 | 89 | 1011.7 |
| 20260902210029 | 59 | 247 | 0.0 | 0.0 | 0.04 | 0.05 | 0.04 | 87 | 1011.7 |
| 20260902204533 | 60 | 247 | 0.0 | 0.0 | 0.03 | 0.04 | 0.03 | 86 | 1011.6 |
| 20260902203031 | 60 | 247 | 0.0 | 0.0 | 0.03 | 0.03 | 0.02 | 84 | 1011.8 |
| 20260902201530 | 61 | 247 | 0.0 | 1.0 | 0.02 | 0.02 | 0.01 | 83 | 1011.8 |
| 20260902200031 | 61 | 247 | 0.0 | 0.0 | 0.01 | 0.01 | 0.01 | 81 | 1011.7 |
| 20260902194529 | 62 | 247 | 0.0 | 1.0 | 0.01 | 0.01 | 0.00 | 78 | 1011.7 |
| 20260902193033 | 63 | 258 | 0.0 | 2.0 | 0.00 | 0.00 | 0.00 | 75 | 1011.8 |
| 20260902191532 | 64 | 294 | 0.0 | 0.0 | 0.00 | 0.00 | 0.00 | 73 | 1011.6 |
| 20260902190030 | 64 | 270 | 0.0 | 0.0 | 0.00 | 0.00 | 0.00 | 70 | 1011.5 |
| 20260902184530 | 64 | 270 | 0.0 | 0.0 | 0.00 | 0.00 | 0.00 | 68 | 1011.4 |